JCSAT-17

Last updated on Sun Jun 21 2026 00:03:08 GMT+0000 (Coordinated Universal Time)

1 45245U 20013A 26171.45917785 -.00000324 00000+0 00000+0 0 9997 2 45245 5.3920 356.9152 0002657 90.1496 122.9182 1.00270543 23261
UTC large
Height (km)
Speed (km/s)
/
Latitude / Longitude
Inclination (degrees)
Orbital Period (minutes)
Azimuth
Elevation
Range (km)
Doppler Factor

Next 0 passes for location: London (51.5072 / 0.1276)

No passes found over London.
JCSAT-17